Location: Spaichingen
(48.0400°N, 8.4300°E)
Time: 23:45:38
(UTC+01:00)

ISS - Pass Details

Date: 02 February 2019
Orbit: 403 x 411 km, 51.6° (Epoch: 18 February)

Event Time Altitude Azimuth Distance (km) Brightness Sun altitude
Rises 18:03:19 0° 278° (W) 2,331 1.4 -6.4°
Reaches altitude 10° 18:05:28 10° 285° (WNW) 1,472 0.0 -6.8°
Maximum altitude 18:08:38 42° 359° (N) 596 -3.1 -7.3°
Enters shadow 18:11:44 11° 71° (ENE) 1,448 -1.7 -7.8°
